Location: Newark
(52.3500°N, 175.9667°E)
Time: 23:41:00
(UTC+00:00)

N. Korean satellite - Pass Details

Date: 08 March 2021
Orbit: 453 x 499 km, 97.2° (Epoch: 11 April)

Event Time Altitude Azimuth Distance (km) Brightness Sun altitude
Rises 17:15:40 0° 20° (NNE) 2,539 10.7 -14.4°
Reaches altitude 10° 17:17:51 10° 31° (NNE) 1,664 9.9 -14.1°
Maximum altitude 17:21:08 33° 97° (E) 834 8.5 -13.6°
Drops below altitude 10° 17:24:25 10° 163° (SSE) 1,674 9.4 -13.1°
Sets 17:26:38 0° 173° (S) 2,558 10.2 -12.8°
